N1825 KTEB-KDCA

Flight info

Callsign N1825
Flight time 0h 44m
Altitude 32000
Route DCT BIGGY Q75 MXE CLIPR3
Aircraft GLF6/M-SBDE2E3FGHIJ4J5M1RWXY/LB1D1

Departure

Time 2026-04-25 04:13
Airport Teterboro Airport (KTEB)

Arrival

Time 2026-04-25 04:57
Airport Ronald Reagan Washington National Airport (KDCA)
Time Latitude Longitude Altitude Speed Heading
2026-04-25 03:01 40.85395 -74.06284 9 ft 0 kts 135°
2026-04-25 03:55 40.85388 -74.06275 9 ft 4 kts 135°
2026-04-25 03:55 40.85376 -74.06228 11 ft 8 kts 79°
2026-04-25 03:55 40.85411 -74.06164 9 ft 9 kts 47°
2026-04-25 03:56 40.85426 -74.06141 8 ft 4 kts 47°
2026-04-25 03:56 40.85443 -74.06098 8 ft 6 kts 94°
2026-04-25 03:56 40.85393 -74.06070 7 ft 13 kts 180°
2026-04-25 03:56 40.85341 -74.06074 7 ft 4 kts 181°
2026-04-25 03:57 40.85292 -74.06076 7 ft 7 kts 181°
2026-04-25 03:57 40.85246 -74.06077 8 ft 6 kts 182°
2026-04-25 03:57 40.85203 -74.06080 9 ft 8 kts 183°
2026-04-25 03:57 40.85144 -74.06085 8 ft 9 kts 184°
2026-04-25 03:58 40.85087 -74.06090 8 ft 11 kts 183°
2026-04-25 03:58 40.85078 -74.06091 8 ft 11 kts 183°
2026-04-25 03:58 40.84994 -74.06097 7 ft 12 kts 183°
2026-04-25 03:58 40.84930 -74.06102 8 ft 0 kts 183°
2026-04-25 04:03 40.84922 -74.06102 8 ft 6 kts 184°
2026-04-25 04:03 40.84859 -74.06108 9 ft 11 kts 184°
2026-04-25 04:04 40.84768 -74.06116 9 ft 15 kts 184°
2026-04-25 04:04 40.84645 -74.06125 8 ft 19 kts 183°
2026-04-25 04:04 40.84514 -74.06134 8 ft 19 kts 183°
2026-04-25 04:04 40.84387 -74.06143 8 ft 19 kts 183°
2026-04-25 04:05 40.84254 -74.06153 9 ft 18 kts 183°
2026-04-25 04:05 40.84128 -74.06162 8 ft 18 kts 183°
2026-04-25 04:05 40.84040 -74.06169 8 ft 10 kts 183°
2026-04-25 04:05 40.83976 -74.06174 9 ft 8 kts 183°
2026-04-25 04:06 40.83924 -74.06178 11 ft 6 kts 183°
2026-04-25 04:06 40.83888 -74.06170 11 ft 5 kts 142°
2026-04-25 04:06 40.83884 -74.06155 11 ft 0 kts 107°
2026-04-25 04:11 40.83883 -74.06071 8 ft 9 kts 80°
2026-04-25 04:11 40.83934 -74.06035 8 ft 9 kts
2026-04-25 04:11 40.83944 -74.06034 8 ft 0 kts
2026-04-25 04:12 40.83946 -74.06034 8 ft 3 kts
2026-04-25 04:12 40.84090 -74.06022 11 ft 48 kts
2026-04-25 04:12 40.84648 -74.05981 8 ft 113 kts
2026-04-25 04:13 40.85614 -74.05912 49 ft 159 kts
2026-04-25 04:13 40.86818 -74.05811 431 ft 186 kts
2026-04-25 04:13 40.88159 -74.06231 906 ft 216 kts 333°
2026-04-25 04:13 40.89456 -74.07360 1673 ft 234 kts 323°
2026-04-25 04:14 40.90649 -74.09158 1551 ft 278 kts 297°
2026-04-25 04:14 40.91158 -74.11524 1586 ft 259 kts 276°
2026-04-25 04:14 40.91129 -74.13855 1511 ft 262 kts 260°
2026-04-25 04:14 40.90247 -74.16218 1288 ft 321 kts 228°
2026-04-25 04:15 40.88503 -74.17910 1411 ft 297 kts 208°
2026-04-25 04:15 40.86742 -74.18965 1870 ft 258 kts 201°
2026-04-25 04:15 40.85144 -74.19713 2234 ft 234 kts 199°
2026-04-25 04:15 40.83615 -74.20400 2332 ft 235 kts 198°
2026-04-25 04:16 40.82032 -74.21025 2424 ft 232 kts 201°
2026-04-25 04:16 40.80749 -74.22124 2827 ft 224 kts 222°
2026-04-25 04:16 40.79606 -74.23593 2900 ft 233 kts 226°
2026-04-25 04:16 40.78506 -74.25204 2789 ft 242 kts 229°
2026-04-25 04:17 40.77396 -74.26856 2985 ft 235 kts 228°
2026-04-25 04:17 40.76329 -74.28415 3257 ft 227 kts 228°
2026-04-25 04:17 40.75259 -74.29968 3291 ft 229 kts 227°
2026-04-25 04:17 40.74188 -74.31518 3390 ft 229 kts 227°
2026-04-25 04:18 40.73064 -74.33001 3452 ft 229 kts 220°
2026-04-25 04:18 40.71831 -74.34344 3506 ft 230 kts 222°
2026-04-25 04:18 40.70812 -74.35941 3642 ft 226 kts 237°
2026-04-25 04:18 40.70018 -74.37736 3688 ft 228 kts 240°
2026-04-25 04:19 40.69205 -74.39553 3696 ft 232 kts 238°
2026-04-25 04:19 40.68347 -74.41373 3709 ft 235 kts 238°
2026-04-25 04:19 40.67497 -74.43191 3725 ft 238 kts 238°
2026-04-25 04:19 40.66619 -74.45064 3735 ft 241 kts 238°
2026-04-25 04:20 40.65737 -74.46950 3829 ft 238 kts 238°
2026-04-25 04:20 40.64881 -74.48772 4462 ft 239 kts 238°
2026-04-25 04:20 40.63973 -74.50712 5128 ft 253 kts 238°
2026-04-25 04:20 40.63036 -74.52687 5551 ft 261 kts 238°
2026-04-25 04:21 40.62031 -74.54819 5442 ft 286 kts 238°
2026-04-25 04:21 40.60944 -74.57137 5408 ft 307 kts 238°
2026-04-25 04:21 40.59834 -74.59498 6100 ft 298 kts 238°
2026-04-25 04:21 40.58735 -74.61832 6546 ft 303 kts 238°
2026-04-25 04:22 40.57622 -74.64193 7027 ft 304 kts 238°
2026-04-25 04:22 40.56517 -74.66540 7487 ft 306 kts 238°
2026-04-25 04:22 40.55391 -74.68925 7968 ft 308 kts 238°
2026-04-25 04:22 40.54256 -74.71332 8421 ft 310 kts 238°
2026-04-25 04:23 40.53111 -74.73753 8873 ft 313 kts 238°
2026-04-25 04:23 40.51960 -74.76188 9330 ft 315 kts 238°
2026-04-25 04:23 40.50799 -74.78640 9777 ft 317 kts 238°
2026-04-25 04:23 40.49631 -74.81106 10222 ft 319 kts 238°
2026-04-25 04:24 40.48455 -74.83590 10656 ft 321 kts 238°
2026-04-25 04:24 40.47270 -74.86085 11098 ft 323 kts 238°
2026-04-25 04:24 40.46077 -74.88601 11529 ft 325 kts 238°
2026-04-25 04:24 40.44877 -74.91123 11950 ft 327 kts 238°
2026-04-25 04:25 40.43647 -74.93710 12002 ft 342 kts 238°
2026-04-25 04:25 40.42381 -74.96369 12439 ft 342 kts 237°
2026-04-25 04:25 40.40873 -74.98799 12748 ft 346 kts 225°
2026-04-25 04:25 40.39195 -75.01051 13166 ft 347 kts 227°
2026-04-25 04:26 40.37571 -75.03435 13550 ft 350 kts 228°
2026-04-25 04:26 40.35920 -75.05801 13947 ft 352 kts 226°
2026-04-25 04:26 40.34227 -75.08126 14326 ft 354 kts 226°
2026-04-25 04:26 40.32535 -75.10483 14708 ft 356 kts 227°
2026-04-25 04:27 40.30867 -75.12841 15086 ft 358 kts 227°
2026-04-25 04:27 40.29163 -75.15231 15462 ft 360 kts 226°
2026-04-25 04:27 40.27449 -75.17622 15842 ft 361 kts 226°
2026-04-25 04:27 40.25725 -75.20034 16200 ft 364 kts 227°
2026-04-25 04:28 40.23990 -75.22457 16558 ft 366 kts 226°
2026-04-25 04:28 40.22246 -75.24893 16913 ft 368 kts 227°
2026-04-25 04:28 40.20493 -75.27337 17256 ft 369 kts 226°
2026-04-25 04:28 40.18728 -75.29795 17607 ft 371 kts 226°
2026-04-25 04:29 40.16957 -75.32265 17946 ft 373 kts 226°
2026-04-25 04:29 40.15175 -75.34741 18280 ft 375 kts 226°
2026-04-25 04:29 40.13387 -75.37229 18613 ft 377 kts 226°
2026-04-25 04:29 40.11585 -75.39731 18937 ft 378 kts 226°
2026-04-25 04:30 40.09779 -75.42237 19263 ft 380 kts 226°
2026-04-25 04:30 40.07960 -75.44761 19572 ft 382 kts 226°
2026-04-25 04:30 40.06133 -75.47291 19913 ft 383 kts 226°
2026-04-25 04:30 40.04304 -75.49825 20217 ft 385 kts 226°
2026-04-25 04:31 40.02462 -75.52372 20499 ft 387 kts 226°
2026-04-25 04:31 40.00614 -75.54928 20796 ft 388 kts 226°
2026-04-25 04:31 39.98753 -75.57497 21094 ft 390 kts 226°
2026-04-25 04:31 39.96887 -75.60071 21378 ft 392 kts 226°
2026-04-25 04:32 39.95012 -75.62658 21664 ft 393 kts 226°
2026-04-25 04:32 39.93127 -75.65252 21952 ft 395 kts 226°
2026-04-25 04:32 39.91328 -75.67952 22178 ft 397 kts 234°
2026-04-25 04:32 39.89816 -75.70978 22451 ft 398 kts 236°
2026-04-25 04:33 39.88267 -75.73924 22714 ft 399 kts 234°
2026-04-25 04:33 39.86669 -75.76897 22973 ft 401 kts 235°
2026-04-25 04:33 39.85104 -75.79920 23240 ft 403 kts 236°
2026-04-25 04:33 39.83545 -75.82955 23497 ft 404 kts 236°
2026-04-25 04:34 39.81959 -75.85982 23748 ft 406 kts 235°
2026-04-25 04:34 39.80361 -75.89017 23994 ft 408 kts 236°
2026-04-25 04:34 39.78766 -75.92073 24252 ft 409 kts 236°
2026-04-25 04:34 39.77172 -75.95122 24497 ft 410 kts 236°
2026-04-25 04:35 39.75562 -75.98190 24731 ft 412 kts 236°
2026-04-25 04:35 39.73944 -76.01272 24971 ft 413 kts 236°
2026-04-25 04:35 39.72320 -76.04363 25207 ft 415 kts 236°
2026-04-25 04:35 39.70692 -76.07461 25446 ft 416 kts 236°
2026-04-25 04:36 39.69054 -76.10574 25682 ft 418 kts 235°
2026-04-25 04:36 39.67408 -76.13694 25917 ft 419 kts 236°
2026-04-25 04:36 39.65759 -76.16825 26035 ft 424 kts 235°
2026-04-25 04:36 39.64077 -76.20010 26040 ft 431 kts 235°
2026-04-25 04:37 39.62366 -76.23249 25916 ft 441 kts 235°
2026-04-25 04:37 39.60626 -76.26536 25650 ft 444 kts 235°
2026-04-25 04:37 39.58633 -76.29656 25617 ft 452 kts 224°
2026-04-25 04:37 39.56272 -76.32233 25568 ft 429 kts 215°
2026-04-25 04:38 39.53884 -76.34296 25134 ft 399 kts 213°
2026-04-25 04:38 39.51647 -76.36251 24667 ft 379 kts 214°
2026-04-25 04:38 39.49454 -76.38172 24293 ft 383 kts 214°
2026-04-25 04:38 39.47229 -76.40096 23912 ft 385 kts 213°
2026-04-25 04:39 39.45063 -76.41972 23446 ft 365 kts 214°
2026-04-25 04:39 39.42986 -76.43776 22969 ft 365 kts 214°
2026-04-25 04:39 39.40910 -76.45577 22284 ft 353 kts 214°
2026-04-25 04:39 39.38852 -76.47360 21699 ft 362 kts 214°
2026-04-25 04:40 39.36721 -76.49204 21123 ft 373 kts 214°
2026-04-25 04:40 39.34536 -76.51095 20541 ft 382 kts 214°
2026-04-25 04:40 39.32342 -76.52994 19896 ft 371 kts 213°
2026-04-25 04:40 39.30241 -76.54806 19229 ft 356 kts 214°
2026-04-25 04:41 39.28225 -76.56547 18570 ft 343 kts 214°
2026-04-25 04:41 39.26275 -76.58229 17916 ft 332 kts 213°
2026-04-25 04:41 39.24382 -76.59861 17269 ft 322 kts 214°
2026-04-25 04:41 39.22540 -76.61448 16625 ft 314 kts 213°
2026-04-25 04:42 39.20742 -76.62995 15985 ft 307 kts 214°
2026-04-25 04:42 39.18960 -76.64531 15379 ft 309 kts 213°
2026-04-25 04:42 39.17167 -76.66089 14789 ft 317 kts 216°
2026-04-25 04:42 39.15499 -76.68038 14208 ft 330 kts 224°
2026-04-25 04:43 39.13793 -76.70101 13637 ft 343 kts 222°
2026-04-25 04:43 39.11992 -76.72185 13030 ft 346 kts 222°
2026-04-25 04:43 39.10260 -76.74226 12378 ft 330 kts 223°
2026-04-25 04:43 39.08613 -76.76197 11716 ft 317 kts 223°
2026-04-25 04:44 39.07035 -76.78065 11079 ft 307 kts 222°
2026-04-25 04:44 39.05481 -76.79898 10433 ft 299 kts 223°
2026-04-25 04:44 39.03974 -76.81680 10125 ft 289 kts 223°
2026-04-25 04:44 39.02480 -76.83443 10119 ft 286 kts 223°
2026-04-25 04:45 39.01041 -76.85145 10118 ft 284 kts 223°
2026-04-25 04:45 38.99586 -76.86858 10035 ft 285 kts 222°
2026-04-25 04:45 38.98091 -76.88622 9634 ft 297 kts 223°
2026-04-25 04:45 38.96580 -76.90342 9185 ft 284 kts 219°
2026-04-25 04:46 38.95065 -76.91901 8759 ft 277 kts 219°
2026-04-25 04:46 38.93418 -76.93290 8321 ft 291 kts 204°
2026-04-25 04:46 38.91433 -76.94012 7911 ft 303 kts 188°
2026-04-25 04:46 38.89323 -76.94111 7462 ft 297 kts 180°
2026-04-25 04:47 38.87302 -76.94176 6984 ft 285 kts 182°
2026-04-25 04:47 38.85349 -76.94253 6509 ft 276 kts 181°
2026-04-25 04:47 38.83456 -76.94336 6023 ft 268 kts 186°
2026-04-25 04:47 38.82281 -76.94758 5665 ft 265 kts 206°
2026-04-25 04:48 38.80904 -76.96262 5180 ft 260 kts 236°
2026-04-25 04:48 38.80293 -76.98399 4706 ft 256 kts 265°
2026-04-25 04:48 38.80392 -77.00651 4282 ft 251 kts 277°
2026-04-25 04:48 38.80639 -77.02851 4144 ft 249 kts 278°
2026-04-25 04:49 38.80905 -77.05063 4123 ft 253 kts 279°
2026-04-25 04:49 38.81184 -77.07296 4118 ft 255 kts 279°
2026-04-25 04:49 38.81469 -77.09556 4104 ft 254 kts 279°
2026-04-25 04:49 38.81745 -77.11709 4086 ft 235 kts 279°
2026-04-25 04:50 38.82191 -77.13636 4042 ft 219 kts 299°
2026-04-25 04:50 38.83228 -77.14945 3972 ft 203 kts 329°
2026-04-25 04:50 38.84403 -77.15807 4082 ft 189 kts 329°
2026-04-25 04:50 38.85569 -77.16686 4128 ft 195 kts 330°
2026-04-25 04:51 38.86750 -77.17556 4126 ft 197 kts 330°
2026-04-25 04:51 38.87970 -77.18451 3968 ft 209 kts 330°
2026-04-25 04:51 38.89277 -77.19405 3751 ft 223 kts 330°
2026-04-25 04:51 38.90633 -77.20395 3484 ft 223 kts 330°
2026-04-25 04:52 38.91972 -77.21372 3202 ft 221 kts 330°
2026-04-25 04:52 38.93326 -77.22342 3127 ft 224 kts 333°
2026-04-25 04:52 38.94792 -77.22879 3022 ft 216 kts 355°
2026-04-25 04:52 38.96144 -77.22433 2882 ft 191 kts 34°
2026-04-25 04:53 38.96937 -77.21094 2681 ft 197 kts 71°
2026-04-25 04:53 38.97169 -77.19318 2315 ft 210 kts 85°
2026-04-25 04:53 38.97144 -77.17492 2037 ft 202 kts 97°
2026-04-25 04:53 38.96735 -77.15814 1981 ft 195 kts 120°
2026-04-25 04:54 38.95852 -77.14484 1905 ft 201 kts 137°
2026-04-25 04:54 38.94806 -77.13322 1864 ft 196 kts 140°
2026-04-25 04:54 38.93741 -77.12203 1774 ft 196 kts 141°
2026-04-25 04:54 38.92667 -77.11101 1621 ft 201 kts 141°
2026-04-25 04:55 38.91615 -77.09917 1321 ft 193 kts 135°
2026-04-25 04:55 38.90813 -77.08590 1082 ft 192 kts 123°
2026-04-25 04:55 38.90214 -77.07166 850 ft 169 kts 115°
2026-04-25 04:55 38.89594 -77.06060 699 ft 139 kts 137°
2026-04-25 04:56 38.88895 -77.05313 534 ft 122 kts 141°
2026-04-25 04:56 38.88246 -77.04665 356 ft 114 kts 144°
2026-04-25 04:56 38.87544 -77.04136 253 ft 122 kts 159°
2026-04-25 04:56 38.86723 -77.03910 147 ft 123 kts 175°
2026-04-25 04:57 38.85868 -77.03843 29 ft 119 kts 176°
2026-04-25 04:57 38.85174 -77.03776 18 ft 81 kts 176°
2026-04-25 04:57 38.84846 -77.03742 17 ft 26 kts 176°
2026-04-25 04:57 38.84745 -77.03762 18 ft 13 kts 199°
2026-04-25 04:58 38.84677 -77.03842 19 ft 10 kts 287°
2026-04-25 04:58 38.84734 -77.03904 18 ft 11 kts 309°
2026-04-25 04:58 38.84722 -77.03981 17 ft 9 kts 221°
2026-04-25 04:58 38.84677 -77.04010 18 ft 7 kts 204°
2026-04-25 04:59 38.84637 -77.04037 20 ft 7 kts 209°
2026-04-25 04:59 38.84603 -77.04078 22 ft 6 kts 239°
2026-04-25 04:59 38.84586 -77.04137 21 ft 8 kts 256°
2026-04-25 04:59 38.84576 -77.04201 22 ft 6 kts 259°
2026-04-25 05:00 38.84567 -77.04263 19 ft 8 kts 263°
2026-04-25 05:00 38.84575 -77.04337 19 ft 9 kts 297°
2026-04-25 05:00 38.84621 -77.04390 18 ft 8 kts 319°
2026-04-25 05:00 38.84648 -77.04413 19 ft 6 kts 338°
2026-04-25 05:01 38.84686 -77.04438 18 ft 4 kts 326°
2026-04-25 05:01 38.84703 -77.04454 20 ft 3 kts 324°
2026-04-25 05:01 38.84708 -77.04460 18 ft 0 kts 323°